カタログに戻る

STARLINK-35451

運用中通信VLEO
NORAD 66469·PAYLOAD·🇺🇸 United States

打ち上げ Nov 15, 2025 から Cape Canaveral Space Force Station

Loading…

次のパス (今後24時間)

TLE

最新Source: CelesTrak SupGP

元期: Sep 15, 2026, 03:06 UTC

1 66469C 25262P   26258.12965278  .00035437  00000+0  12832-2 0  2588
2 66469  43.0024 305.9740 0001658 264.7267  62.6054 15.27568125    14

AllMySatでSTARLINK-35451をリアルタイム追跡

Download on the App Store